Other Public Products
Issued by NWS Charleston, SC

Current Version | Previous Version | Text Only | Print | Product List | Glossary Off
Versions: 1 2 3 4 5 6 7 8 9 10 11 12 13 14 15 16 17 18 19 20 21 22 23 24 25 26 27 28 29 30 31 32 33 34 35 36 37 38 39 40 41 42 43 44 45 46 47 48 49 50

000
FPUS82 KCHS 281412
OPUCHS

TEST...KCHS/KSAV Gateway Observations...TEST
National Weather Service Charleston SC
1000 AM EDT TUE MAR 28 2017

NOTE: "fair" indicates few or no clouds below 12,000 feet with no
significant weather and/or obstructions to visibility.

SCZ050-WAZ558-NCZ071-TXZ119-213-PAZ071-DCZ001-FLZ074-172-MI076-
NYZ176-178-MAZ016-IL014-TNZ027-NJZ106-GAZ044-MD014-281500-

...Gateway Observations for Charleston International...

CITY           SKY/WX    TMP DP  RH WIND       PRES   REMARKS
Chas Airport   MOSUNNY   74  60  61 W12       30.01S
Seattle        LGT RAIN  45  41  86 S10       30.20F
Charlotte      MOSUNNY   66  60  81 SW12      29.95S
Dallas DFW     DRIZZLE   64  60  87 E9        29.89R
Dallas Love    CLOUDY    65  59  81 SE9       29.90R
Philladelphia  CLOUDY    50  48  93 E10       29.90R
Wash National  LGT RAIN  65  61  87 W10       29.86F
Baltimore      LGT RAIN  57  57 100 NW5       29.85F FOG
Miami          MOSUNNY   74  62  66 CALM      30.06R
Detroit        CLOUDY    46  39  76 N9        30.03R
Newark         CLOUDY    46  44  93 NE7       29.97R FOG
Laguardia      CLOUDY    43  39  86 NE13      29.97R FOG
J F K          CLOUDY    47  45  93 E7        29.97R
Boston Logan   CLOUDY    38  36  92 E7        30.05S WCI  33
Ft. Lauderdale SUNNY     76  63  64 NW6       30.05R
Chicago O`Hare CLOUDY    42  37  82 N10       30.09R
Chicago Midway CLOUDY    42  37  82 N10G22    30.10R
Houston Bush   MOSUNNY   73  70  90 SE8       29.88S
Houston Hobby  PTSUNNY   74  70  87 SE10      29.88R
Nashville      PTSUNNY   60  54  80 NW6       30.01S
Atlanta        CLOUDY    66  62  87 SW8       30.00R

$$

GAZ044-118-TXZ119-213-NCZ071-DCZ001-MDZ014-506-PAZ021-071-NJZ106-
NYZ176-178-MAZ106-OHZ011-021-055-MIZ076-KYZ091-ILZ014-INZ047-
MNZ060-ONZ431-281500-

...Gateway Observations for Savannah International...

CITY           SKY/WX    TMP DP  RH WIND       PRES   REMARKS
Savannah Arpt  MOSUNNY   74  59  59 SW10      30.04S
Atlanta        CLOUDY    66  62  87 SW8       30.00R
Charlotte      MOSUNNY   66  60  81 SW12      29.95S
Dallas DFW     DRIZZLE   64  60  87 E9        29.89R
Houston Bush   MOSUNNY   73  70  90 SE8       29.88S
Wash National  LGT RAIN  65  61  87 W10       29.86F
Wash Dulles    LGT RAIN  61  59  93 CALM      29.85F
Baltimore      LGT RAIN  57  57 100 NW5       29.85F FOG
Philadelphia   CLOUDY    50  48  93 E10       29.90R
Newark         CLOUDY    46  44  93 NE7       29.97R FOG
Laguardia      CLOUDY    43  39  86 NE13      29.97R FOG
J F K          CLOUDY    47  45  93 E7        29.97R
Boston         CLOUDY    38  36  92 E7        30.05S WCI  33
Pittsburg      CLOUDY    57  57 100 S5        29.87S
Akron          CLOUDY    51  48  89 N12       29.91R FOG
Cleveland      CLOUDY    44  40  85 N9        29.99R FOG
Cincinnati     CLOUDY    55  53  93 N13       29.94R FOG
Columbus       CLOUDY    54  54 100 N7        29.92R FOG
Detroit        CLOUDY    46  39  76 N9        30.03R
Chicago O`Hare CLOUDY    42  37  82 N10       30.09R
Minneapolis    SUNNY     42  36  79 CALM      30.13R
Indianapolis   CLOUDY    50  47  89 N12       30.00R
Toronto Canada CLOUDY    41  37  87 N14       29.97R

$$




USA.gov is the U.S. government's official web portal to all federal, state and local government web resources and services.